Change the Weather History Date:

Saturday, October 15, 2011

  Actual Average Record
Temperature  
Mean Temperature 38 °F -  
Max Temperature 45 °F 28 °F 51 °F (2013)
Min Temperature 30 °F 15 °F 3 °F (1999)
Degree Days  
Heating Degree Days 28    
Moisture  
Dew Point 25 °F    
Average Humidity 61    
Maximum Humidity 82    
Minimum Humidity 53    
Precipitation  
Precipitation 0.00 in - - ()
Sea Level Pressure  
Sea Level Pressure 29.55 in    
Wind  
Wind Speed 15 mph (ESE)    
Max Wind Speed 21 mph    
Max Gust Speed 31 mph    
Visibility 10 miles    
Events      
Averages and records for this station are not official NWS values.
T = Trace of Precipitation, MM = Missing Value Source: NWS Daily Summary

Daily Weather History Graph

Daily Weather History Graph

Search for Another Location

Airport or City:

Trip Planner

Search our weather history database for the weather conditions in past years. The results will help you decide how hot, cold, wet, or windy it might be!

Date:

Astronomy

Oct. 15, 2011 Rise Set
Actual Time 8:32 AM AKDT 6:23 PM AKDT
Civil Twilight 7:44 AM AKDT 7:11 PM AKDT
Nautical Twilight 6:49 AM AKDT 8:06 PM AKDT
Astronomical Twilight 5:52 AM AKDT 9:02 PM AKDT
Moon 6:38 PM AKDT (10/15) 1:53 PM AKDT (10/15)
Length of Visible Light 11h 27m
Length of Day
9h 50m
Waning Gibbous, 88% of the Moon is Illuminated
Oct 15
Waning Gibbous
Oct 19
Last Quarter
Oct 26
New
Nov 2
First Quarter
Nov 10
Full

Hourly Weather History & Observations

Time (AKDT) Temp. Windchill Dew Point Humidity Pressure Visibility Wind Dir Wind Speed Gust Speed Precip Events Conditions
12:53 AM 41.0 °F 31.6 °F 26.1 °F 55% 29.46 in 10.0 mi SE 20.7 mph 31.1 mph N/A   Clear
1:53 AM 45.0 °F 38.2 °F 28.9 °F 53% 29.45 in 10.0 mi ESE 15.0 mph 25.3 mph N/A   Mostly Cloudy
2:53 AM 39.0 °F 29.6 °F 25.0 °F 57% 29.47 in 10.0 mi ESE 18.4 mph 27.6 mph N/A   Clear
3:53 AM 37.9 °F 28.9 °F 25.0 °F 60% 29.47 in 10.0 mi ESE 16.1 mph 25.3 mph N/A   Clear
4:53 AM 42.1 °F 33.9 °F 27.0 °F 55% 29.46 in 10.0 mi SE 17.3 mph 26.5 mph N/A   Clear
5:53 AM 37.0 °F 27.7 °F 25.0 °F 62% 29.47 in 10.0 mi ESE 16.1 mph - N/A   Mostly Cloudy
6:53 AM 36.0 °F 26.0 °F 24.1 °F 62% 29.49 in 10.0 mi ESE 17.3 mph - N/A   Mostly Cloudy
7:53 AM 36.0 °F 26.3 °F 24.1 °F 62% 29.50 in 10.0 mi ESE 16.1 mph - N/A   Overcast
8:53 AM 36.0 °F 25.3 °F 24.1 °F 62% 29.50 in 10.0 mi ESE 19.6 mph - N/A   Overcast
9:53 AM 37.0 °F 28.1 °F 24.1 °F 59% 29.51 in 10.0 mi ESE 15.0 mph - N/A   Overcast
10:53 AM 37.0 °F 27.7 °F 24.1 °F 59% 29.53 in 10.0 mi ESE 16.1 mph - N/A   Overcast
11:53 AM 39.0 °F 29.6 °F 24.1 °F 55% 29.54 in 10.0 mi East 18.4 mph - N/A   Overcast
12:53 PM 39.9 °F 30.5 °F 25.0 °F 55% 29.55 in 10.0 mi ESE 19.6 mph 24.2 mph N/A   Overcast
1:53 PM 39.9 °F 31.4 °F 25.0 °F 55% 29.55 in 10.0 mi ESE 16.1 mph - N/A   Overcast
2:53 PM 41.0 °F 31.9 °F 25.0 °F 53% 29.57 in 10.0 mi ESE 19.6 mph - N/A   Overcast
3:53 PM 41.0 °F 33.5 °F 26.1 °F 55% 29.57 in 10.0 mi ESE 13.8 mph - N/A   Mostly Cloudy
4:53 PM 41.0 °F 33.5 °F 25.0 °F 53% 29.58 in 10.0 mi ESE 13.8 mph - N/A   Mostly Cloudy
5:53 PM 39.9 °F 35.8 °F 26.1 °F 58% 29.60 in 10.0 mi SE 5.8 mph - N/A   Mostly Cloudy
6:53 PM 37.9 °F - 26.1 °F 62% 29.62 in 10.0 mi Calm Calm - N/A   Mostly Cloudy
7:53 PM 36.0 °F 30.3 °F 24.1 °F 62% 29.64 in 10.0 mi SSE 6.9 mph - N/A   Mostly Cloudy
8:53 PM 32.0 °F - 24.1 °F 73% 29.66 in 10.0 mi Calm Calm - N/A   Mostly Cloudy
9:53 PM 30.9 °F - 24.1 °F 76% 29.68 in 10.0 mi Calm Calm - N/A   Clear
10:53 PM 33.1 °F 28.7 °F 25.0 °F 72% 29.69 in 10.0 mi WSW 4.6 mph - N/A   Clear
11:53 PM 32.0 °F 27.5 °F 27.0 °F 82% 29.71 in 10.0 mi WSW 4.6 mph - N/A   Overcast